[[{"header":{"parameterUnit":"m.s-1","parameterCategory":2,"la1":30.2991,"la2":30.254,"lo1":-89.0895,"lo2":-89.0444,"dy":0.0017,"dx":0.0017,"nx":28,"ny":28,"refTime":"2024-03-08T09:00:00:Z","depth":"0","parameterNumber":2,"parameterNumberName":"U-component_of_CURRENTS"},"data":[0,0,0,0,0,0,0,0,0,0,0,0,0,0,0,0,0,0,0,0,0,0,0,0,0,0,0,0,0,0,0,0,0,0,0,0,0,0,0,0,0,0,0,0,0,0,0,0,0,0,0,0,0,0,0,0,0,0,0.2015,0.2015,0,0.2021,0.202,0.202,0.2012,0.2012,0.2012,0.2012,0.2028,0.2028,0.2028,0,0,0,0,0,0,0,0,0,0,0,0,0,0.1986,0.1986,0.2015,0.2016,0.2016,0.2021,0.202,0.202,0.2012,0.2012,0.2012,0.2012,0.2028,0.2028,0.2028,0,0,0,0,0,0,0,0,0,0,0,0,0,0.1992,0.1986,0.2015,0.2015,0.2016,0.2021,0.202,0.202,0.2012,0.2012,0.2012,0.2012,0.2027,0.2028,0.2028,0.203,0,0,0.203,0.203,0,0,0,0,0,0,0,0,0.1992,0.1993,0.2015,0.2015,0.2016,0.2019,0.2016,0.2025,0.2012,0.201,0.2012,0.2012,0.2028,0.2029,0.2024,0.2031,0.2031,0.203,0.203,0.2031,0.2031,0,0,0,0,0,0,0,0.1991,0.1992,0.2014,0.2015,0.2016,0.2011,0.2012,0.2017,0.2016,0.201,0.201,0.2017,0.2028,0.2023,0.2024,0.2032,0.203,0.2031,0.2031,0.2031,0.2095,0.2096,0,0,0,0,0,0,0.1999,0.1992,0.2013,0.2014,0.2008,0.2012,0.2013,0.2015,0.2015,0.2016,0.2017,0.2016,0.2022,0.2024,0.2025,0.2077,0.2031,0.2031,0.2031,0.2093,0.2095,0.2097,0,0,0,0,0,0,0.1998,0.2,0.2013,0.2006,0.2008,0.2013,0.2015,0.2015,0.2019,0.2021,0.2022,0.2022,0.2023,0.2024,0.2048,0.2076,0.2031,0.2032,0.2092,0.2094,0.2096,0.215,0,0,0,0,0,0,0.1997,0.2,0.2003,0.2007,0.2009,0.2027,0.2016,0.2015,0.2024,0.2024,0.2026,0.2027,0.2023,0.2048,0.2049,0.2076,0.2032,0.209,0.2093,0.2095,0.2146,0.2153,0.2159,0,0,0,0,0,0.1996,0.2004,0.2003,0.2006,0.2013,0.2029,0.2029,0.203,0.2025,0.2032,0.2039,0.2027,0.2065,0.2049,0.205,0.2078,0.2089,0.2092,0.2095,0.2143,0.2152,0.2159,0,0,0,0,0,0,0.1993,0.2004,0.2003,0.2014,0.2026,0.2029,0.2036,0.2036,0.2045,0.2045,0.2042,0.2045,0.2082,0.207,0.2053,0.2105,0.2076,0.2079,0.2112,0.212,0.2127,0.2115,0.2033,0,0,0,0,0,0.1994,0.2003,0.2014,0.2023,0.203,0.2033,0.2039,0.2041,0.205,0.2053,0.2057,0.2067,0.2093,0.2099,0.2115,0.2135,0.2131,0.2154,0.2161,0.2167,0.2159,0.2201,0.221,0.2107,0.2107,0.2107,0,0,0.1995,0.2004,0.2008,0.2024,0.2029,0.2044,0.2036,0.205,0.2066,0.2055,0.2076,0.2093,0.2107,0.214,0.2154,0.2133,0.2193,0.2171,0.2175,0.2164,0.2205,0.2215,0.2224,0.2109,0.2108,0.2108,0,0,0.2003,0.2011,0.2019,0.2032,0.2049,0.2056,0.2064,0.2073,0.2082,0.2105,0.2115,0.2145,0.2164,0.2186,0.2199,0.2248,0.2235,0.2257,0.2271,0.2313,0.2322,0.233,0.233,0.2337,0.2251,0.2251,0.2251,0,0.2004,0.2015,0.2025,0.204,0.2053,0.2064,0.2079,0.2094,0.2111,0.2126,0.2119,0.2176,0.2187,0.2242,0.2259,0.2264,0.227,0.224,0.2322,0.2329,0.2336,0.2335,0.2342,0.2254,0.2254,0.2253,0.2253,0,0.2014,0.2028,0.2038,0.206,0.2077,0.2093,0.2118,0.2138,0.215,0.2163,0.2216,0.2236,0.2266,0.2285,0.2284,0.2345,0.2328,0.2334,0.23,0.235,0.2345,0.2352,0.2258,0.2257,0.2256,0.2256,0,0,0.2002,0.2037,0.204,0.2051,0.2087,0.21,0.2141,0.2177,0.2203,0.2229,0.2265,0.2316,0.2324,0.2339,0.2355,0.2383,0.2436,0.2374,0.2375,0.237,0.2504,0.2399,0.2396,0.2463,0.2465,0.2467,0.2477,0,0.2006,0.2031,0.205,0.2079,0.2096,0.2127,0.2163,0.22,0.2232,0.2271,0.2309,0.2352,0.2348,0.237,0.2402,0.2437,0.2457,0.243,0.2458,0.2458,0.2357,0.2402,0.2303,0.2297,0.2484,0.2485,0.2485,0,0.2004,0.2025,0.205,0.209,0.2099,0.2119,0.2176,0.221,0.2277,0.2303,0.2354,0.2382,0.2439,0.2426,0.2495,0.248,0.249,0.2504,0.2506,0.239,0.2366,0.228,0.2302,0.2271,0.2495,0.2494,0.2494,0,0.1983,0.2022,0.204,0.2054,0.2104,0.2124,0.2153,0.2217,0.2256,0.2328,0.2364,0.2427,0.2462,0.2504,0.2525,0.2522,0.2583,0.2586,0.2496,0.2487,0.2396,0.2376,0.2385,0.2628,0.2628,0.2628,0.2628,0,0.1977,0.1991,0.203,0.204,0.207,0.2108,0.215,0.2194,0.2265,0.2312,0.2376,0.2422,0.2487,0.2527,0.2542,0.2527,0.26,0.2495,0.249,0.2409,0.2391,0.2351,0.2346,0.2628,0.2628,0.2628,0.2628,0,0.1953,0.1977,0.2001,0.2045,0.206,0.2081,0.2146,0.2178,0.2251,0.2318,0.2345,0.2433,0.2477,0.2516,0.2572,0.2533,0.2468,0.2517,0.239,0.2368,0.222,0.222,0.2097,0.2047,0.2412,0.241,0.2407,0,0.1942,0.1954,0.1996,0.2007,0.2025,0.2065,0.2093,0.2166,0.2203,0.2318,0.2341,0.2413,0.2445,0.2469,0.2426,0.241,0.2388,0.2288,0.2257,0.219,0.219,0.2111,0.2074,0.2163,0.2159,0.2156,0.2153,0,0.1927,0.1941,0.1955,0.1983,0.2004,0.2042,0.2083,0.2111,0.2197,0.2248,0.2313,0.2353,0.2363,0.23,0.2257,0.2232,0.2173,0.2217,0.221,0.2033,0.1889,0.1845,0.2157,0.2125,0.2128,0.213,0.2131,0.2132,0.191,0.1912,0.1929,0.1947,0.1973,0.2002,0.1999,0.2044,0.2088,0.2117,0.2213,0.2199,0.2197,0.2118,0.2085,0.1941,0.1957,0.1878,0.1895,0.1828,0.1737,0.1948,0.187,0.1871,0.1873,0.1874,0.1874,0,0.1876,0.188,0.1894,0.1903,0.1899,0.1941,0.1972,0.1946,0.1942,0.1974,0.1994,0.1961,0.1891,0.187,0.1752,0.1658,0.1592,0.1612,0.1526,0.1519,0.1771,0.1718,0.1529,0.1529,0.1529,0.1529,0.1529,0.1529,0.186,0.1844,0.1844,0.1822,0.1825,0.1792,0.1788,0.1762,0.1755,0.1688,0.1634,0.1646,0.1696,0.165,0.1539,0.1492,0.1422,0.1303,0.1346,0.1585,0.1613,0.1639,0.159,0.1377,0.1377,0.1024,0.1022,0.102]},{"header":{"parameterUnit":"m.s-1","parameterCategory":2,"la1":30.2991,"la2":30.254,"lo1":-89.0895,"lo2":-89.0444,"dy":0.0017,"dx":0.0017,"nx":28,"ny":28,"refTime":"2024-03-08T09:00:00:Z","depth":"0","parameterNumber":3,"parameterNumberName":"V-component_of_CURRENTS"},"data":[0,0,0,0,0,0,0,0,0,0,0,0,0,0,0,0,0,0,0,0,0,0,0,0,0,0,0,0,0,0,0,0,0,0,0,0,0,0,0,0,0,0,0,0,0,0,0,0,0,0,0,0,0,0,0,0,0,0,-0.0037,-0.0037,0,-0.0038,-0.0038,-0.0038,-0.0045,-0.0045,-0.0045,-0.0046,-0.0074,-0.0074,-0.0075,0,0,0,0,0,0,0,0,0,0,0,0,0,-0.0044,-0.0044,-0.0037,-0.0037,-0.0037,-0.0038,-0.0038,-0.0038,-0.0045,-0.0045,-0.0045,-0.0046,-0.0074,-0.0074,-0.0075,0,0,0,0,0,0,0,0,0,0,0,0,0,-0.0042,-0.0044,-0.0037,-0.0041,-0.0042,-0.0038,-0.0038,-0.0038,-0.0045,-0.0045,-0.0045,-0.0046,-0.0074,-0.0074,-0.0075,-0.0074,0,0,-0.0078,-0.0078,0,0,0,0,0,0,0,0,-0.0042,-0.0042,-0.004,-0.0041,-0.0041,-0.0042,-0.0051,-0.0051,-0.0045,-0.0043,-0.0046,-0.0046,-0.0066,-0.0067,-0.0066,-0.0075,-0.0076,-0.0078,-0.0078,-0.0079,-0.0079,0,0,0,0,0,0,0,-0.0042,-0.0042,-0.0037,-0.004,-0.0041,-0.0044,-0.0044,-0.0051,-0.0053,-0.0043,-0.0044,-0.0045,-0.0066,-0.0065,-0.0066,-0.0077,-0.0078,-0.0078,-0.0079,-0.0079,-0.0093,-0.0093,0,0,0,0,0,0,-0.0043,-0.0042,-0.0037,-0.0037,-0.0043,-0.0043,-0.0043,-0.0041,-0.0052,-0.0054,-0.0044,-0.0045,-0.0063,-0.0066,-0.0068,-0.0065,-0.0079,-0.0079,-0.008,-0.0093,-0.0093,-0.0093,0,0,0,0,0,0,-0.0043,-0.0042,-0.0037,-0.004,-0.004,-0.0043,-0.004,-0.0041,-0.004,-0.0053,-0.0055,-0.0043,-0.0064,-0.0066,-0.0074,-0.0066,-0.008,-0.008,-0.0093,-0.0093,-0.0093,-0.0061,0,0,0,0,0,0,-0.0043,-0.0042,-0.004,-0.004,-0.004,-0.0031,-0.004,-0.0041,-0.004,-0.0041,-0.0052,-0.0055,-0.0064,-0.0073,-0.0075,-0.0068,-0.0081,-0.0094,-0.0093,-0.0093,-0.0062,-0.0059,-0.0057,0,0,0,0,0,-0.0043,-0.0037,-0.004,-0.0039,-0.0037,-0.0031,-0.0031,-0.0034,-0.004,-0.0035,-0.0047,-0.0055,-0.0073,-0.0074,-0.0076,-0.0069,-0.0094,-0.0093,-0.0093,-0.0063,-0.006,-0.0057,0,0,0,0,0,0,-0.0039,-0.0037,-0.004,-0.0035,-0.0032,-0.0032,-0.0029,-0.0033,-0.0037,-0.0039,-0.0053,-0.0057,-0.0061,-0.0071,-0.0071,-0.0073,-0.0085,-0.0085,-0.0061,-0.0058,-0.0056,-0.004,-0.0082,0,0,0,0,0,-0.0037,-0.0031,-0.0032,-0.0026,-0.0026,-0.0028,-0.0026,-0.0027,-0.0031,-0.0033,-0.0043,-0.0054,-0.0061,-0.0065,-0.0074,-0.0073,-0.0072,-0.0071,-0.0069,-0.0066,-0.0056,-0.0049,-0.0044,-0.0092,-0.0092,-0.0092,0,0,-0.0034,-0.0032,-0.0029,-0.0025,-0.0024,-0.0015,-0.0027,-0.0021,-0.0012,-0.0036,-0.0032,-0.0048,-0.0061,-0.0061,-0.0064,-0.0068,-0.0053,-0.0066,-0.0064,-0.0055,-0.0048,-0.0043,-0.0039,-0.0092,-0.0092,-0.0092,0,0,-0.0019,-0.0023,-0.0012,-0.0008,-0.0003,-0.0004,-0.0002,-0.0003,-0.0003,-0.0002,-0.0018,-0.0025,-0.0038,-0.0042,-0.0047,-0.0037,-0.0043,-0.0045,-0.0016,-0.001,-0.0005,-0.0002,0.0006,0.0011,-0.0041,-0.0041,-0.0041,0,-0.0016,-0.0,-0.0008,0.0006,0.0013,0.0002,0.0018,0.0017,0.0014,0.0018,0.0003,-0.0006,-0.0025,-0.0015,-0.0018,-0.003,-0.0028,-0.0025,-0.0005,-0.0001,0.0002,0.0009,0.0013,-0.0039,-0.0039,-0.0039,-0.004,0,0.0011,0.0022,0.0029,0.0043,0.0048,0.0061,0.0058,0.0061,0.0054,0.0054,0.0057,0.0036,0.0035,0.0022,0.0003,0.0018,0.001,-0.0004,-0.0009,0.0009,0.0015,0.0019,-0.0037,-0.0037,-0.0038,-0.0038,0,0,0.0027,0.0045,0.0049,0.0064,0.0071,0.0081,0.0091,0.0103,0.0119,0.0106,0.0132,0.0104,0.0095,0.0089,0.0067,0.0064,0.0079,0.004,0.0039,0.0054,0.0097,0.0079,0.0082,0.0067,0.0068,0.0069,0.0091,0,0.0052,0.0087,0.0088,0.012,0.0138,0.0133,0.0147,0.0154,0.0154,0.0173,0.0157,0.0166,0.0121,0.0124,0.0115,0.009,0.009,0.0074,0.0072,0.0072,0.006,0.0086,0.0105,0.0126,0.0095,0.0096,0.0096,0,0.0083,0.0103,0.0139,0.0167,0.0174,0.0189,0.0215,0.0229,0.0244,0.0246,0.0252,0.0241,0.024,0.0198,0.0177,0.0169,0.0138,0.0113,0.0114,0.0092,0.0062,0.0102,0.0134,0.0077,0.0102,0.0102,0.0101,0,0.0108,0.014,0.0171,0.0182,0.0207,0.0222,0.0237,0.0252,0.0279,0.0301,0.0327,0.0315,0.0323,0.0286,0.0228,0.0207,0.0207,0.0174,0.0133,0.0132,0.0146,0.0144,0.0129,0.0167,0.0167,0.0167,0.0167,0,0.014,0.0165,0.0186,0.0206,0.0248,0.0254,0.0301,0.0311,0.0346,0.0399,0.0372,0.0416,0.0344,0.0332,0.0269,0.0221,0.0242,0.0151,0.0141,0.0156,0.0155,0.0102,0.0062,0.0168,0.0167,0.0167,0.0167,0,0.0162,0.0176,0.0216,0.0248,0.0262,0.0294,0.0348,0.0385,0.0407,0.0481,0.0496,0.0498,0.0485,0.0411,0.0356,0.0279,0.0203,0.0205,0.0226,0.0217,0.0108,0.007,0.0059,0.0038,0.0168,0.0168,0.0167,0,0.0177,0.0199,0.0249,0.028,0.0296,0.0344,0.0382,0.0415,0.0463,0.0544,0.0589,0.0594,0.0624,0.053,0.0397,0.0297,0.0225,0.0225,0.018,0.0117,0.0067,0.0047,0.0028,0.0214,0.0214,0.0214,0.0214,0,0.0206,0.0221,0.0256,0.0319,0.0364,0.0425,0.0485,0.0535,0.0594,0.0667,0.076,0.0794,0.0703,0.0616,0.0449,0.0363,0.0192,0.0223,0.0162,0.0109,0.0085,0.0055,0.018,0.0216,0.0216,0.0215,0.0215,0.0215,0.0227,0.0257,0.0304,0.0365,0.0423,0.0505,0.057,0.065,0.0755,0.0883,0.0892,0.0965,0.0811,0.0596,0.0454,0.0209,0.0208,0.0139,0.0101,0.0089,0.0057,0.018,0.0195,0.0195,0.0195,0.0194,0.0194,0,0.0255,0.0291,0.0348,0.0429,0.0502,0.0527,0.064,0.0722,0.0866,0.0984,0.1076,0.1057,0.086,0.0626,0.0301,0.0128,0.0064,0.0037,0.0018,0.0006,0.0127,0.0115,0.011,0.011,0.011,0.011,0.011,0.011,0.0272,0.0329,0.0359,0.0482,0.0544,0.0655,0.0729,0.0864,0.0971,0.1148,0.1214,0.1245,0.1093,0.0508,0.0131,0.0032,-0.0078,-0.0099,-0.0157,-0.0078,-0.0071,-0.0065,-0.0085,-0.0133,-0.0133,-0.0243,-0.0244,-0.0245]}],[{"header":{"parameterUnit":"m.s-1","parameterCategory":2,"la1":30.2991,"la2":30.254,"lo1":-89.0895,"lo2":-89.0444,"dy":0.0017,"dx":0.0017,"nx":28,"ny":28,"refTime":"2024-03-08T09:00:00:Z","depth":"2","parameterNumber":2,"parameterNumberName":"U-component_of_CURRENTS"},"data":[0,0,0,0,0,0,0,0,0,0,0,0,0,0,0,0,0,0,0,0,0,0,0,0,0,0,0,0,0,0,0,0,0,0,0,0,0,0,0,0,0,0,0,0,0,0,0,0,0,0,0,0,0,0,0,0,0,0,0.1404,0.1404,0,0.1423,0.1424,0.1424,0.1435,0.1435,0.1435,0.1435,0.1451,0.1451,0.1451,0,0,0,0,0,0,0,0,0,0,0,0,0,0.1375,0.1375,0.1404,0.1404,0.1404,0.1423,0.1424,0.1424,0.1435,0.1435,0.1435,0.1435,0.145,0.1451,0.1451,0,0,0,0,0,0,0,0,0,0,0,0,0,0.1389,0.1375,0.1404,0.1413,0.1414,0.1423,0.1424,0.1424,0.1435,0.1435,0.1435,0.1435,0.145,0.1451,0.1451,0.145,0,0,0.1453,0.1453,0,0,0,0,0,0,0,0,0.1388,0.139,0.1411,0.1412,0.1414,0.1428,0.1419,0.1433,0.1435,0.1426,0.1435,0.1435,0.1443,0.1444,0.1446,0.1451,0.1451,0.1453,0.1453,0.1453,0.1453,0,0,0,0,0,0,0,0.1387,0.1389,0.1411,0.1412,0.1413,0.1416,0.1418,0.1422,0.1432,0.1427,0.1428,0.1431,0.1444,0.1446,0.1446,0.1452,0.1453,0.1453,0.1453,0.1453,0.1511,0.1512,0,0,0,0,0,0,0.1387,0.1388,0.141,0.1411,0.1402,0.1416,0.1419,0.1422,0.1432,0.1434,0.1431,0.1432,0.1445,0.1446,0.1447,0.1494,0.1453,0.1453,0.1454,0.151,0.1511,0.1512,0,0,0,0,0,0,0.1386,0.1389,0.1409,0.1401,0.1404,0.1417,0.1421,0.1423,0.1429,0.1436,0.1438,0.1437,0.1445,0.1446,0.146,0.1492,0.1454,0.1454,0.1508,0.151,0.1512,0.1556,0,0,0,0,0,0,0.1385,0.1388,0.1393,0.1401,0.1405,0.1416,0.1421,0.1423,0.1432,0.1433,0.1441,0.1443,0.1445,0.1459,0.1461,0.1492,0.1454,0.1506,0.1509,0.1511,0.1553,0.1559,0.1565,0,0,0,0,0,0.1384,0.1387,0.1393,0.1396,0.141,0.1416,0.1418,0.1427,0.1432,0.1434,0.1446,0.1443,0.1476,0.146,0.1461,0.1494,0.1505,0.1508,0.1511,0.155,0.1558,0.1564,0,0,0,0,0,0,0.1381,0.1389,0.1396,0.1403,0.1411,0.1419,0.1427,0.1429,0.144,0.145,0.1449,0.1451,0.1484,0.1477,0.146,0.1519,0.1494,0.1497,0.1524,0.1531,0.1537,0.153,0.1455,0,0,0,0,0,0.1382,0.1385,0.1395,0.1403,0.141,0.1419,0.1425,0.1434,0.1443,0.1448,0.1457,0.1473,0.1496,0.1501,0.1519,0.1537,0.1537,0.1563,0.1568,0.1573,0.157,0.162,0.163,0.1522,0.1522,0.1522,0,0,0.1384,0.1389,0.1392,0.1402,0.1413,0.1426,0.1423,0.144,0.1454,0.1449,0.1475,0.1495,0.1506,0.154,0.1554,0.1537,0.16,0.1577,0.1581,0.1575,0.1624,0.1634,0.1644,0.1524,0.1523,0.1523,0,0,0.1389,0.1396,0.1403,0.1411,0.1431,0.1437,0.1442,0.1459,0.1472,0.1492,0.1509,0.1537,0.1557,0.1579,0.159,0.1632,0.1635,0.1651,0.1668,0.1717,0.1726,0.1735,0.1728,0.1735,0.1647,0.1647,0.1647,0,0.1393,0.1402,0.1407,0.142,0.1431,0.1442,0.1459,0.1471,0.1492,0.1513,0.1506,0.1568,0.1574,0.1623,0.1644,0.1645,0.1661,0.164,0.1725,0.1733,0.1741,0.1732,0.174,0.165,0.165,0.1649,0.1649,0,0.1407,0.1416,0.1423,0.1442,0.1456,0.147,0.1491,0.1515,0.153,0.1548,0.16,0.1613,0.165,0.1665,0.1664,0.1732,0.172,0.1732,0.1706,0.1754,0.1742,0.1749,0.1653,0.1653,0.1652,0.1651,0,0,0.1399,0.1427,0.1428,0.1441,0.147,0.148,0.1518,0.1551,0.1577,0.1608,0.1646,0.1688,0.1707,0.172,0.1737,0.1769,0.1825,0.1777,0.1778,0.1766,0.1909,0.1827,0.1826,0.187,0.1872,0.1874,0.187,0,0.1407,0.1432,0.1446,0.147,0.1486,0.1514,0.1539,0.1578,0.1607,0.1646,0.1683,0.1725,0.1726,0.1752,0.1791,0.1831,0.185,0.1823,0.1866,0.1866,0.1787,0.1835,0.1699,0.168,0.1877,0.1878,0.1879,0,0.1412,0.1427,0.1456,0.1485,0.1495,0.1512,0.1563,0.1593,0.1655,0.1683,0.174,0.1768,0.183,0.1818,0.1897,0.1889,0.1899,0.1911,0.1912,0.1826,0.1799,0.1669,0.1685,0.189,0.1889,0.1888,0.1888,0,0.1398,0.1429,0.1452,0.1462,0.1501,0.1523,0.1551,0.1609,0.1647,0.1718,0.1754,0.1823,0.1865,0.1912,0.1938,0.1937,0.2004,0.2004,0.1926,0.1918,0.1801,0.1779,0.2046,0.2046,0.2046,0.2046,0.2046,0,0.1392,0.1405,0.1445,0.1452,0.1485,0.1519,0.1562,0.1602,0.1668,0.1713,0.1778,0.1819,0.1901,0.1946,0.1959,0.196,0.2025,0.1929,0.1925,0.1808,0.1789,0.1973,0.1965,0.2046,0.2046,0.2046,0.2046,0,0.137,0.1395,0.1419,0.1459,0.1478,0.1505,0.1572,0.1594,0.1668,0.1732,0.1763,0.1848,0.19,0.1941,0.2002,0.1975,0.1986,0.1961,0.1787,0.1763,0.1852,0.1846,0.1876,0.1873,0.1871,0.1869,0.1868,0,0.136,0.1373,0.1421,0.1436,0.1453,0.15,0.1521,0.1593,0.1621,0.1736,0.1755,0.1836,0.1858,0.1899,0.1883,0.1871,0.1931,0.1718,0.1687,0.1848,0.1842,0.1839,0.1836,0.1538,0.1534,0.1531,0.1528,0,0.1339,0.136,0.1373,0.1412,0.1432,0.1469,0.1508,0.1528,0.1607,0.1653,0.1703,0.1735,0.1774,0.1711,0.1699,0.167,0.1713,0.1647,0.1895,0.16,0.153,0.1523,0.1532,0.1498,0.1501,0.1503,0.1505,0.1506,0.1319,0.1324,0.1347,0.1372,0.1401,0.1417,0.1411,0.1441,0.1472,0.1505,0.1588,0.158,0.1602,0.1512,0.146,0.1414,0.1527,0.1457,0.1468,0.1483,0.1442,0.1372,0.13,0.1302,0.1303,0.1305,0.1306,0,0.1288,0.1294,0.1309,0.132,0.1315,0.1366,0.1379,0.1341,0.1319,0.1371,0.1391,0.1283,0.1243,0.1268,0.1158,0.1135,0.1128,0.108,0.1081,0.1111,0.1138,0.108,0.0842,0.084,0.0839,0.0838,0,0,0.1271,0.1256,0.1252,0.1227,0.1239,0.1201,0.119,0.1149,0.1156,0.1111,0.1102,0.1194,0.1239,0.1043,0.1004,0.0914,0.1003,0.0864,0.1239,0.1271,0.1296,0.1357,0.1302,0,0,0,0,0]},{"header":{"parameterUnit":"m.s-1","parameterCategory":2,"la1":30.2991,"la2":30.254,"lo1":-89.0895,"lo2":-89.0444,"dy":0.0017,"dx":0.0017,"nx":28,"ny":28,"refTime":"2024-03-08T09:00:00:Z","depth":"2","parameterNumber":3,"parameterNumberName":"V-component_of_CURRENTS"},"data":[0,0,0,0,0,0,0,0,0,0,0,0,0,0,0,0,0,0,0,0,0,0,0,0,0,0,0,0,0,0,0,0,0,0,0,0,0,0,0,0,0,0,0,0,0,0,0,0,0,0,0,0,0,0,0,0,0,0,0.0041,0.0041,0,0.0039,0.0039,0.0039,0.0025,0.0025,0.0024,0.0024,-0.0004,-0.0004,-0.0005,0,0,0,0,0,0,0,0,0,0,0,0,0,0.0033,0.0033,0.0041,0.0041,0.0041,0.0039,0.0039,0.0039,0.0025,0.0025,0.0024,0.0024,-0.0004,-0.0004,-0.0005,0,0,0,0,0,0,0,0,0,0,0,0,0,0.0035,0.0033,0.0041,0.0033,0.0033,0.0039,0.0039,0.0039,0.0025,0.0025,0.0024,0.0023,-0.0004,-0.0004,-0.0005,0.0002,0,0,-0.0007,-0.0007,0,0,0,0,0,0,0,0,0.0035,0.0035,0.0035,0.0034,0.0033,0.0031,0.0026,0.0025,0.0025,0.0028,0.0024,0.0023,0.0006,0.0004,0.0006,0.0001,-0.0,-0.0007,-0.0007,-0.0007,-0.0008,0,0,0,0,0,0,0,0.0034,0.0035,0.004,0.0035,0.0034,0.003,0.003,0.0026,0.002,0.0028,0.0027,0.0026,0.0005,0.0006,0.0005,-0.0001,-0.0007,-0.0007,-0.0008,-0.0008,-0.0012,-0.0012,0,0,0,0,0,0,0.0035,0.0035,0.004,0.004,0.0032,0.0031,0.0031,0.0033,0.002,0.0018,0.0027,0.0026,0.0008,0.0006,0.0004,0.0009,-0.0007,-0.0008,-0.0008,-0.0013,-0.0012,-0.0012,0,0,0,0,0,0,0.0035,0.0036,0.004,0.0037,0.0037,0.0032,0.0034,0.0033,0.0033,0.002,0.0017,0.0028,0.0007,0.0005,0.0001,0.0008,-0.0008,-0.0009,-0.0013,-0.0013,-0.0012,0.0021,0,0,0,0,0,0,0.0035,0.0036,0.0038,0.0037,0.0038,0.0047,0.0035,0.0033,0.0034,0.0032,0.002,0.0017,0.0007,0.0002,0.0001,0.0007,-0.0009,-0.0013,-0.0013,-0.0012,0.0019,0.0022,0.0025,0,0,0,0,0,0.0034,0.0043,0.0038,0.0039,0.0041,0.0048,0.0048,0.0042,0.0034,0.0039,0.0029,0.0017,0.0004,0.0002,0.0,0.0006,-0.0013,-0.0013,-0.0012,0.0018,0.0022,0.0025,0,0,0,0,0,0,0.004,0.0042,0.0037,0.0044,0.0046,0.0045,0.0048,0.0044,0.0041,0.0037,0.0023,0.0019,0.0017,0.0008,0.0006,0.0005,-0.0008,-0.0007,0.0016,0.0019,0.0022,0.0035,-0.001,0,0,0,0,0,0.0042,0.005,0.0048,0.0055,0.0055,0.0052,0.0053,0.005,0.0047,0.0045,0.0034,0.0023,0.0019,0.0016,0.0008,0.0011,0.0005,0.0012,0.0015,0.0017,0.0027,0.0024,0.0028,-0.001,-0.001,-0.001,0,0,0.0045,0.0049,0.0052,0.0057,0.0056,0.0065,0.0051,0.0057,0.0065,0.0042,0.0045,0.0031,0.0021,0.0022,0.0021,0.0015,0.0024,0.0018,0.002,0.0028,0.0025,0.0029,0.0033,-0.001,-0.001,-0.001,0,0,0.0061,0.0059,0.007,0.0075,0.0077,0.0076,0.0078,0.0075,0.0074,0.0077,0.0061,0.0055,0.0045,0.0042,0.0039,0.0053,0.0036,0.0045,0.0072,0.0069,0.0073,0.0076,0.0069,0.0071,0.0048,0.0048,0.0048,0,0.0065,0.008,0.0075,0.0088,0.0095,0.0082,0.0097,0.0097,0.0093,0.0096,0.0081,0.0073,0.0058,0.007,0.007,0.006,0.0053,0.0061,0.0074,0.0076,0.0079,0.0071,0.0073,0.0049,0.0049,0.0049,0.0049,0,0.0091,0.0102,0.011,0.0123,0.0129,0.014,0.0138,0.014,0.0132,0.0131,0.0134,0.0115,0.0113,0.0103,0.0091,0.0101,0.0088,0.0076,0.0068,0.0085,0.0075,0.0077,0.0052,0.0051,0.0051,0.005,0,0,0.0104,0.0124,0.0128,0.0142,0.0149,0.016,0.0171,0.0182,0.0197,0.0182,0.0202,0.0183,0.017,0.0166,0.0147,0.0141,0.0144,0.0117,0.0116,0.0114,0.0135,0.0119,0.0118,0.0132,0.0133,0.0133,0.0121,0,0.0126,0.016,0.0164,0.0196,0.0213,0.0209,0.0226,0.0232,0.0231,0.0244,0.0227,0.0234,0.0196,0.0197,0.0185,0.0159,0.015,0.0148,0.0116,0.0115,0.0102,0.012,0.013,0.0119,0.0122,0.0122,0.0122,0,0.0153,0.0174,0.0208,0.024,0.0247,0.0263,0.0289,0.0304,0.0315,0.0314,0.0313,0.0299,0.0294,0.0257,0.0223,0.0223,0.0183,0.0156,0.0154,0.0131,0.0101,0.0103,0.0121,0.0124,0.0124,0.0124,0.0124,0,0.0173,0.0208,0.0237,0.0248,0.0278,0.0293,0.0309,0.0324,0.035,0.0362,0.0381,0.0363,0.0364,0.0318,0.0253,0.0241,0.0213,0.0189,0.0136,0.0134,0.0133,0.013,0.0164,0.0164,0.0164,0.0164,0.0164,0,0.0201,0.0226,0.025,0.027,0.0312,0.0321,0.0367,0.0378,0.0408,0.0454,0.0422,0.0452,0.0378,0.0351,0.0283,0.0218,0.0235,0.0149,0.0134,0.0143,0.0141,0.0138,0.0135,0.0163,0.0163,0.0163,0.0163,0,0.022,0.0234,0.0275,0.031,0.0324,0.0356,0.0409,0.0447,0.0464,0.0525,0.0535,0.0524,0.0491,0.041,0.0337,0.0262,0.0197,0.0165,0.0177,0.0164,0.0111,0.011,0.0113,0.0113,0.0112,0.0112,0.0112,0,0.0233,0.0254,0.0305,0.0334,0.0352,0.04,0.044,0.0472,0.052,0.0577,0.0616,0.0597,0.06,0.048,0.035,0.0233,0.0205,0.0147,0.0123,0.0123,0.0108,0.0108,0.0108,0.0132,0.0132,0.0131,0.0131,0,0.0259,0.0274,0.031,0.0371,0.0416,0.0476,0.0536,0.0583,0.0637,0.069,0.0753,0.0759,0.0647,0.0533,0.0354,0.0268,0.0167,0.014,0.0151,0.014,0.0139,0.0124,0.0124,0.013,0.013,0.013,0.013,0.013,0.0278,0.0307,0.0354,0.0412,0.0471,0.055,0.061,0.0681,0.0768,0.0854,0.0848,0.0854,0.0709,0.049,0.0333,0.0159,0.0174,0.0103,0.0104,0.0105,0.0107,0.0104,0.009,0.0089,0.0089,0.0089,0.0089,0,0.0304,0.0337,0.0393,0.0471,0.0544,0.0569,0.0676,0.0742,0.0853,0.0915,0.0961,0.0823,0.0683,0.0511,0.0263,0.0113,0.0096,0.0052,0.0069,0.0072,0.0074,0.0074,0.0048,0.0047,0.0047,0.0046,0,0,0.0319,0.0372,0.0401,0.0518,0.0577,0.068,0.0745,0.0846,0.0914,0.0984,0.0984,0.0951,0.0746,0.0551,0.0349,0.0203,0.0168,0.0166,0.0218,0.0266,0.027,0.0125,0.0131,0,0,0,0,0]}],[{"header":{"parameterUnit":"m.s-1","parameterCategory":2,"la1":30.2991,"la2":30.254,"lo1":-89.0895,"lo2":-89.0444,"dy":0.0017,"dx":0.0017,"nx":28,"ny":28,"refTime":"2024-03-08T09:00:00:Z","depth":"4","parameterNumber":2,"parameterNumberName":"U-component_of_CURRENTS"},"data":[0,0,0,0,0,0,0,0,0,0,0,0,0,0,0,0,0,0,0,0,0,0,0,0,0,0,0,0,0,0,0,0,0,0,0,0,0,0,0,0,0,0,0,0,0,0,0,0,0,0,0,0,0,0,0,0,0,0,0.0579,0.0579,0,0.0597,0.0597,0.0598,0.064,0.064,0.0641,0.0642,0.0673,0.0673,0.0673,0,0,0,0,0,0,0,0,0,0,0,0,0,0.057,0.057,0.0579,0.0579,0.0579,0.0597,0.0598,0.0598,0.064,0.0641,0.0641,0.0642,0.0673,0.0673,0.0673,0,0,0,0,0,0,0,0,0,0,0,0,0,0.0582,0.057,0.0579,0.06,0.0602,0.0597,0.0598,0.0598,0.064,0.0641,0.0642,0.0642,0.0672,0.0673,0.0673,0.0655,0,0,0.0674,0.0674,0,0,0,0,0,0,0,0,0.0581,0.0582,0.0597,0.0599,0.0601,0.0615,0.0606,0.0617,0.0639,0.0628,0.0642,0.0643,0.0652,0.0654,0.0659,0.0656,0.0658,0.0674,0.0674,0.0674,0.0674,0,0,0,0,0,0,0,0.058,0.0582,0.0588,0.0597,0.0599,0.0605,0.0608,0.0608,0.0636,0.0629,0.0631,0.063,0.0654,0.0658,0.066,0.0658,0.0674,0.0674,0.0674,0.0675,0.0731,0.0732,0,0,0,0,0,0,0.0573,0.0581,0.0588,0.0589,0.0591,0.0605,0.0608,0.0611,0.0636,0.064,0.0629,0.0631,0.0657,0.0659,0.0661,0.0713,0.0674,0.0675,0.0675,0.073,0.0731,0.0733,0,0,0,0,0,0,0.0573,0.0573,0.0587,0.0583,0.0585,0.0603,0.0607,0.0611,0.0631,0.0635,0.064,0.0645,0.0658,0.066,0.0675,0.0712,0.0675,0.0675,0.0728,0.073,0.0732,0.0771,0,0,0,0,0,0,0.0572,0.0573,0.058,0.0583,0.0585,0.06,0.0606,0.0611,0.0626,0.063,0.0651,0.0654,0.0659,0.0674,0.0675,0.0712,0.0675,0.0726,0.0729,0.0731,0.0768,0.0774,0.0779,0,0,0,0,0,0.0572,0.0574,0.0581,0.0582,0.0592,0.0601,0.0603,0.062,0.0626,0.0641,0.065,0.0654,0.0692,0.0675,0.0675,0.0713,0.0725,0.0728,0.0731,0.0766,0.0773,0.0779,0,0,0,0,0,0,0.0576,0.0578,0.0586,0.059,0.0602,0.0607,0.0621,0.0625,0.0643,0.0655,0.0655,0.0659,0.0692,0.0691,0.0672,0.0739,0.0715,0.0719,0.0742,0.0748,0.0754,0.076,0.0675,0,0,0,0,0,0.0578,0.0582,0.0588,0.0594,0.0604,0.0614,0.0621,0.0635,0.0645,0.0655,0.067,0.0687,0.0702,0.0714,0.0729,0.075,0.0752,0.0781,0.0786,0.0791,0.0798,0.082,0.0828,0.0742,0.0742,0.0742,0,0,0.0579,0.0582,0.0585,0.0596,0.061,0.0623,0.0623,0.0645,0.0659,0.0654,0.0689,0.0705,0.0711,0.0747,0.0763,0.0751,0.0819,0.0795,0.0799,0.0803,0.0823,0.0832,0.0839,0.0745,0.0744,0.0744,0,0,0.0582,0.0594,0.0599,0.0614,0.0635,0.0641,0.0649,0.0671,0.0691,0.071,0.0723,0.0756,0.0771,0.0796,0.0802,0.0844,0.0846,0.086,0.0893,0.0914,0.0921,0.0927,0.0947,0.0954,0.0864,0.0864,0.0864,0,0.0587,0.0594,0.0604,0.0619,0.0632,0.0649,0.0666,0.0682,0.0708,0.0729,0.073,0.0785,0.0795,0.0836,0.0861,0.0858,0.0868,0.0864,0.0921,0.0927,0.0933,0.0951,0.0958,0.0866,0.0866,0.0865,0.0865,0,0.0595,0.0608,0.0617,0.0639,0.0655,0.0676,0.0697,0.073,0.075,0.0766,0.0821,0.084,0.0876,0.0892,0.0886,0.0945,0.0939,0.0923,0.0901,0.0943,0.096,0.0967,0.0869,0.0868,0.0868,0.0867,0,0,0.059,0.0616,0.0623,0.0635,0.0672,0.0682,0.0721,0.0755,0.078,0.0825,0.0862,0.0909,0.0937,0.0948,0.0965,0.0988,0.104,0.098,0.098,0.0994,0.1091,0.1005,0.1004,0.1034,0.1035,0.1036,0.1088,0,0.0599,0.0618,0.0634,0.0661,0.0672,0.0711,0.0735,0.0774,0.0808,0.0851,0.0897,0.094,0.0951,0.0983,0.1011,0.1032,0.106,0.1027,0.1052,0.1053,0.0967,0.101,0.1041,0.1094,0.1095,0.1096,0.1097,0,0.0604,0.0614,0.0637,0.0665,0.0677,0.0704,0.0759,0.0786,0.085,0.0883,0.0947,0.0976,0.1046,0.1034,0.1104,0.1084,0.1099,0.1107,0.1108,0.1018,0.098,0.1042,0.111,0.1109,0.1108,0.1107,0.1107,0,0.0583,0.0617,0.0633,0.0646,0.0682,0.0718,0.075,0.0808,0.0838,0.0921,0.0958,0.1027,0.1081,0.1109,0.1145,0.1131,0.1198,0.1175,0.1112,0.1106,0.115,0.1143,0.1218,0.1218,0.1218,0.1218,0.1218,0,0.0575,0.059,0.0632,0.0641,0.0673,0.0711,0.0761,0.0806,0.0871,0.091,0.0984,0.1028,0.1104,0.1149,0.1161,0.1163,0.1217,0.1128,0.1116,0.1166,0.116,0.1155,0.1147,0.122,0.1219,0.1219,0.1218,0,0.0547,0.0572,0.0588,0.0637,0.0663,0.069,0.0769,0.0796,0.0872,0.0931,0.0966,0.1055,0.1117,0.1167,0.1219,0.1183,0.1187,0.1173,0.1237,0.1226,0.1078,0.1072,0.1105,0.1102,0.11,0.1098,0.1097,0,0.0529,0.0536,0.0585,0.0598,0.0629,0.0684,0.0718,0.0797,0.0827,0.0934,0.0951,0.1048,0.11,0.1113,0.1161,0.1179,0.1163,0.1155,0.1106,0.1082,0.1068,0.1065,0.1062,0.1093,0.1093,0.1092,0.1091,0,0.0494,0.052,0.0538,0.0566,0.0605,0.0632,0.0694,0.0712,0.08,0.0879,0.0927,0.0963,0.1029,0.1067,0.1098,0.1101,0.1149,0.1132,0.1136,0.109,0.1069,0.1055,0.1055,0.1084,0.1085,0.1086,0.1086,0,0.0475,0.048,0.0508,0.0529,0.0562,0.0567,0.0608,0.0655,0.0699,0.0819,0.0834,0.0933,0.1022,0.1027,0.1046,0.1052,0.1029,0.0981,0.0993,0.1002,0.0941,0.0897,0.0857,0,0,0,0,0,0.0455,0.0455,0.0465,0.0476,0.0501,0.0523,0.0577,0.0619,0.0716,0.0727,0.0778,0.0835,0.0881,0.0925,0.0911,0.0985,0.1023,0.096,0.097,0.1042,0.1051,0.0987,0,0,0,0,0,0,0.0439,0.0452,0.0449,0.0426,0.0427,0.0449,0.0483,0.0544,0.0555,0.066,0.0695,0.0773,0.0834,0.089,0.0896,0.0907,0.089,0.1021,0.1018,0.1037,0.1045,0.1052,0.0989,0,0,0,0,0]},{"header":{"parameterUnit":"m.s-1","parameterCategory":2,"la1":30.2991,"la2":30.254,"lo1":-89.0895,"lo2":-89.0444,"dy":0.0017,"dx":0.0017,"nx":28,"ny":28,"refTime":"2024-03-08T09:00:00:Z","depth":"4","parameterNumber":3,"parameterNumberName":"V-component_of_CURRENTS"},"data":[0,0,0,0,0,0,0,0,0,0,0,0,0,0,0,0,0,0,0,0,0,0,0,0,0,0,0,0,0,0,0,0,0,0,0,0,0,0,0,0,0,0,0,0,0,0,0,0,0,0,0,0,0,0,0,0,0,0,0.016,0.016,0,0.0167,0.0167,0.0167,0.0154,0.0153,0.0153,0.0153,0.0145,0.0145,0.0146,0,0,0,0,0,0,0,0,0,0,0,0,0,0.0138,0.0138,0.016,0.016,0.016,0.0167,0.0167,0.0167,0.0154,0.0153,0.0153,0.0153,0.0145,0.0145,0.0146,0,0,0,0,0,0,0,0,0,0,0,0,0,0.0146,0.0139,0.016,0.0155,0.0155,0.0167,0.0167,0.0167,0.0154,0.0153,0.0153,0.0152,0.0145,0.0145,0.0146,0.0159,0,0,0.0146,0.0147,0,0,0,0,0,0,0,0,0.0146,0.0147,0.0156,0.0155,0.0155,0.0159,0.0156,0.0164,0.0154,0.0154,0.0153,0.0152,0.0149,0.0149,0.0151,0.0159,0.0159,0.0146,0.0147,0.0147,0.0147,0,0,0,0,0,0,0,0.0145,0.0147,0.0162,0.0156,0.0155,0.0153,0.0153,0.0158,0.0154,0.0154,0.0153,0.0155,0.0149,0.0151,0.0151,0.0158,0.0146,0.0147,0.0147,0.0147,0.0167,0.0167,0,0,0,0,0,0,0.0146,0.0146,0.0162,0.0163,0.0149,0.0154,0.0154,0.0158,0.0155,0.0154,0.0155,0.0154,0.0151,0.0151,0.0151,0.0164,0.0147,0.0147,0.0147,0.0166,0.0167,0.0167,0,0,0,0,0,0,0.0145,0.0147,0.0162,0.0155,0.0156,0.0155,0.0159,0.0159,0.016,0.0156,0.0154,0.0157,0.0151,0.015,0.0158,0.0164,0.0147,0.0147,0.0166,0.0166,0.0167,0.0192,0,0,0,0,0,0,0.0145,0.0147,0.0151,0.0155,0.0157,0.0169,0.016,0.0159,0.0162,0.0161,0.0157,0.0156,0.015,0.0158,0.0158,0.0164,0.0148,0.0165,0.0166,0.0167,0.0191,0.0193,0.0195,0,0,0,0,0,0.0144,0.0153,0.0152,0.0153,0.0162,0.0169,0.017,0.0167,0.0163,0.0165,0.0166,0.0156,0.0162,0.0159,0.0159,0.0165,0.0165,0.0166,0.0167,0.0189,0.0193,0.0195,0,0,0,0,0,0,0.0146,0.0153,0.0151,0.0162,0.0164,0.0167,0.0171,0.017,0.0173,0.0172,0.0165,0.0165,0.0172,0.0167,0.0163,0.0172,0.016,0.0161,0.0177,0.018,0.0183,0.0186,0.0148,0,0,0,0,0,0.0149,0.0158,0.0161,0.017,0.0171,0.0172,0.0175,0.0173,0.0176,0.0177,0.0173,0.0172,0.0177,0.0177,0.0178,0.0187,0.0173,0.0189,0.0191,0.0194,0.0197,0.0184,0.0185,0.017,0.017,0.017,0,0,0.0153,0.0158,0.0163,0.0171,0.0173,0.0182,0.0172,0.0179,0.0189,0.0176,0.0186,0.0182,0.0182,0.019,0.0192,0.0185,0.0189,0.0195,0.0196,0.0198,0.0185,0.0186,0.0187,0.017,0.017,0.017,0,0,0.0166,0.0169,0.018,0.0184,0.019,0.0191,0.0193,0.0195,0.0197,0.0208,0.0201,0.0202,0.0206,0.0206,0.0209,0.0226,0.0204,0.0223,0.0238,0.0225,0.0226,0.0227,0.0205,0.0204,0.0223,0.0223,0.0223,0,0.017,0.0186,0.0184,0.0196,0.0204,0.0196,0.0211,0.0214,0.0218,0.0223,0.0212,0.022,0.0216,0.0231,0.0234,0.0232,0.0216,0.0227,0.0228,0.0229,0.0229,0.0207,0.0205,0.0224,0.0224,0.0224,0.0224,0,0.0191,0.0204,0.0211,0.0225,0.0232,0.0243,0.0247,0.0251,0.025,0.0251,0.026,0.0253,0.0256,0.0253,0.025,0.0254,0.0239,0.0233,0.0221,0.0232,0.0208,0.0205,0.0226,0.0226,0.0225,0.0225,0,0,0.0198,0.0222,0.0225,0.0239,0.025,0.026,0.0275,0.0288,0.03,0.0293,0.0307,0.0307,0.0294,0.0296,0.0287,0.0274,0.026,0.0255,0.0254,0.0233,0.0223,0.0207,0.0203,0.0252,0.0252,0.0252,0.0202,0,0.0215,0.0246,0.0253,0.0284,0.0299,0.0302,0.032,0.0329,0.033,0.0337,0.0327,0.0335,0.0314,0.0316,0.03,0.0275,0.0256,0.0274,0.0215,0.0213,0.0198,0.0201,0.0252,0.02,0.02,0.0199,0.0199,0,0.0231,0.0252,0.0285,0.0319,0.0326,0.0343,0.0368,0.0385,0.0391,0.039,0.0387,0.0374,0.0364,0.0341,0.0295,0.0306,0.0266,0.0239,0.0236,0.0212,0.0194,0.0187,0.0194,0.0195,0.0195,0.0195,0.0196,0,0.0239,0.0276,0.0305,0.0316,0.035,0.0367,0.0386,0.04,0.0421,0.0424,0.043,0.0409,0.0403,0.0354,0.0296,0.0294,0.0236,0.0227,0.0173,0.0171,0.0188,0.0188,0.0189,0.0189,0.0189,0.0189,0.0189,0,0.0255,0.028,0.0313,0.0331,0.0372,0.0387,0.0427,0.0438,0.0458,0.0485,0.046,0.0464,0.0405,0.0365,0.0305,0.0232,0.0241,0.0175,0.0159,0.0199,0.0201,0.0186,0.0186,0.0187,0.0187,0.0188,0.0188,0,0.0261,0.0281,0.032,0.0361,0.0378,0.0408,0.0461,0.0487,0.0499,0.053,0.0533,0.0506,0.0452,0.0384,0.0304,0.0247,0.0177,0.0147,0.019,0.0178,0.0115,0.0118,0.0081,0.0081,0.008,0.0079,0.0079,0,0.0267,0.0287,0.0343,0.0371,0.0393,0.044,0.0475,0.0507,0.0535,0.0554,0.0567,0.0527,0.0498,0.0372,0.0295,0.0177,0.0158,0.0113,0.0116,0.0117,0.0105,0.0109,0.0112,0.0077,0.0077,0.0077,0.0077,0,0.0278,0.0298,0.033,0.0388,0.0431,0.0485,0.0534,0.0555,0.0591,0.0602,0.0592,0.053,0.0467,0.037,0.0278,0.0193,0.0139,0.0104,0.0105,0.0108,0.0112,0.0102,0.0106,0.0074,0.0074,0.0075,0.0075,0,0.0287,0.0308,0.0352,0.0403,0.0461,0.0514,0.054,0.0572,0.0601,0.0616,0.0609,0.0543,0.0508,0.0377,0.0294,0.0209,0.0184,0.0146,0.0145,0.0147,0.018,0.0194,0.0169,0,0,0,0,0,0.0293,0.0316,0.0364,0.0423,0.0482,0.0517,0.0575,0.0596,0.0624,0.0619,0.0616,0.0557,0.0434,0.0382,0.0294,0.0273,0.0165,0.0165,0.0121,0.0059,0.0062,0.0089,0,0,0,0,0,0,0.0298,0.0337,0.0359,0.0431,0.0473,0.054,0.0577,0.0596,0.0594,0.0605,0.0543,0.0521,0.0404,0.0485,0.0288,0.0263,0.0219,0.0113,0.0111,0.0058,0.006,0.0063,0.0091,0,0,0,0,0]}]]